ASTERIA (43020 NORAD) Tracking and Keplerian Element Data

This shows tracking and keplerian element data for the satellite.

Feedback or suggestion? Click here.




ElementValue
Catalog43020
NameASTERIA
Epoch Orbit8046
Epoch Day109.87916082
Epoch Year2019
RAAN264.7198
Inclination51.6421
Eccentricity0.0002245
Argument of Perigee268.0689
Mean Anonmoly92.0051
Mean Motion15.68240749
Decay Rate0.00022039
L11 43020U 98067NH 19109.87916082 .00022039 00000-0 19751-3 0 9992
L22 43020 51.6421 264.7198 0002245 268.0689 92.0051 15.68240749 80460

Live tracking and technical data element details for ASTERIA (NORAD 43020). ASTERIA can be tracked NOW for your location showing map with azimuth and elevation plus other details from your city location.

Track the satellite on the map from your city or location and see movement details for azimuth, elevation, latitude, longitude, range, height, and movement on the map or in text.







IsCatalogInMostPopularTable: catalog: 43020, numindb: 243
Update: records affected: 1



GetName: 43020 ASTERIA

Hit Count: updated at: Sat, 20 Apr 2019 20:10:09 GMT